GSAT0216 (GALILEO 20) (43056 NORAD) Tracking and Keplerian Element Data
This shows tracking and keplerian element data for the satellite.
Feedback or suggestion? Click here.
Element | Value |
Catalog | 43056 |
Name | GSAT0216 (GALILEO 20) |
Epoch Orbit | 1934 |
Epoch Day | 19.86809192 |
Epoch Year | 2021 |
RAAN | 275.8549 |
Inclination | 56.1023 |
Eccentricity | 0.0004044 |
Argument of Perigee | 303.1674 |
Mean Anonmoly | 56.8596 |
Mean Motion | 1.70473922 |
Decay Rate | -1.2E-07 |
L1 | 1 43056U 17079B 21019.86809192 -.00000012 00000-0 00000-0 0 9992 |
L2 | 2 43056 56.1023 275.8549 0004044 303.1674 56.8596 1.70473922 19344 |
Live tracking and technical data element details for GSAT0216 (GALILEO 20) (NORAD 43056). GSAT0216 (GALILEO 20) can be tracked NOW for your location showing map with azimuth and elevation plus other details from your city location.
Track the satellite on the map from your city or location and see movement details for azimuth, elevation, latitude, longitude, range, height, and movement on the map or in text.
IsCatalogInMostPopularTable: catalog: 43056, numindb: 568
Update: records affected: 1
GetName: 43056 GSAT0216 (GALILEO 20)
Hit Count: updated at: Sat, 23 Jan 2021 05:44:04 GMT